Total_Precipitation_Accumulation
-0.02 -0.01 -0.01 -0.03 -0.12 -0.12 -0.14 -0.11 -0.04 -0.04 0.03 0.01 -0.02 -0.02 -0.02 0.01 0.48 0.64 0.64 0.56 0.44 0.36 0.36 0.35 0.31 0.22 0.22 0.21 0.30 0.30 0.23 0.21 0.21 0.20 0.20 0.14 0.14 0.17 0.17 0.22 0.28 0.25 0.25 0.23 0.22 0.22 0.16 0.10 0.07 0.07 0.08 0.03 -0.02 -0.05 -0.05 -0.06 -0.09 -0.07 -0.07 -0.07 -0.04 -0.08 -0.08 -0.08 -0.08 -0.08 -0.11 -0.17 -0.16
-0.13 -0.12 -0.12 -0.15 -0.11 -0.11 -0.12 -0.04 0.05 0.05 0.07 -0.00 -0.09 -0.14 -0.14 -0.10 0.25 0.47 0.47 0.54 0.46 0.38 0.38 0.40 0.41 0.33 0.33 0.29 0.32 0.32 0.30 0.29 0.26 0.24 0.24 0.17 0.19 0.18 0.18 0.21 0.25 0.28 0.28 0.26 0.22 0.22 0.16 0.12 0.10 0.10 0.08 0.04 0.01 -0.02 -0.02 -0.01 -0.02 -0.04 -0.04 -0.05 -0.04 -0.05 -0.05 -0.04 -0.03 -0.03 -0.02 -0.03 -0.06
-0.24 -0.36 -0.36 -0.31 -0.07 -0.07 0.07 0.10 0.10 0.10 0.07 0.06 -0.08 -0.19 -0.19 -0.19 0.11 0.32 0.32 0.41 0.40 0.35 0.35 0.45 0.45 0.40 0.40 0.35 0.36 0.36 0.54 0.39 0.31 0.27 0.27 0.19 0.20 0.19 0.19 0.18 0.22 0.29 0.29 0.30 0.25 0.25 0.18 0.11 0.08 0.08 0.08 0.06 0.02 -0.00 -0.00 -0.01 -0.02 -0.02 -0.02 -0.03 -0.02 -0.02 -0.02 -0.02 -0.02 -0.02 -0.02 -0.01 -0.01
-0.36 -0.49 -0.49 -0.41 -0.26 -0.26 -0.00 0.12 0.10 0.10 0.12 0.13 0.03 -0.08 -0.08 -0.16 0.03 0.17 0.17 0.26 0.30 0.28 0.28 0.36 0.46 0.46 0.46 0.39 0.35 0.35 0.61 0.53 0.38 0.28 0.28 0.24 0.18 0.20 0.20 0.17 0.20 0.28 0.28 0.31 0.30 0.30 0.22 0.17 0.10 0.10 0.07 0.07 0.04 0.00 0.00 -0.01 -0.01 -0.00 -0.00 -0.00 -0.01 -0.01 -0.01 -0.01 -0.01 -0.01 -0.00 -0.02 0.00
-0.31 -0.38 -0.38 -0.27 -0.21 -0.21 -0.15 -0.01 0.01 0.01 0.06 0.13 0.14 0.12 0.12 0.06 -0.01 0.04 0.04 0.16 0.21 0.21 0.21 0.17 0.26 0.32 0.32 0.21 0.36 0.36 0.52 0.61 0.51 0.35 0.35 0.28 0.19 0.21 0.21 0.20 0.22 0.26 0.26 0.31 0.30 0.30 0.26 0.22 0.16 0.16 0.08 0.07 0.05 0.02 0.02 -0.00 -0.01 -0.01 -0.01 -0.00 -0.00 -0.00 -0.00 -0.00 -0.00 -0.00 0.00 0.00 -0.00
-0.07 -0.09 -0.09 -0.17 -0.24 -0.24 -0.33 -0.28 -0.22 -0.22 -0.00 0.11 0.13 0.13 0.13 0.14 -0.12 -0.06 -0.06 0.04 0.14 0.17 0.17 0.06 0.07 0.16 0.16 0.24 0.37 0.37 0.50 0.60 0.60 0.45 0.45 0.38 0.20 0.19 0.19 0.25 0.24 0.27 0.27 0.29 0.28 0.28 0.26 0.24 0.21 0.21 0.16 0.08 0.06 0.04 0.04 0.02 -0.00 0.00 0.00 -0.00 -0.01 -0.01 -0.01 -0.01 -0.00 -0.00 -0.00 -0.00 -0.00
0.04 0.05 0.05 0.05 -0.25 -0.25 -0.50 -0.75 -0.71 -0.71 -0.18 -0.04 -0.01 0.02 0.02 0.06 -0.08 -0.10 -0.10 -0.01 0.12 0.19 0.19 0.17 0.25 0.27 0.27 0.32 0.44 0.44 0.50 0.61 0.65 0.55 0.55 0.47 0.35 0.20 0.20 0.23 0.24 0.23 0.23 0.26 0.27 0.27 0.24 0.23 0.23 0.23 0.19 0.10 0.10 0.06 0.06 0.04 0.01 0.02 0.02 -0.01 -0.01 -0.01 -0.01 -0.01 -0.01 -0.01 -0.00 -0.00 -0.00
0.01 0.02 0.02 0.16 0.09 0.09 -0.13 -0.48 -0.75 -0.75 -0.42 -0.18 -0.09 -0.08 -0.08 -0.11 0.05 -0.06 -0.06 0.01 0.14 0.17 0.17 0.20 0.21 0.20 0.20 0.24 0.33 0.33 0.45 0.58 0.71 0.63 0.63 0.54 0.46 0.22 0.22 0.21 0.24 0.22 0.22 0.25 0.23 0.23 0.23 0.24 0.24 0.24 0.23 0.18 0.11 0.09 0.09 0.08 0.05 0.06 0.06 0.01 0.01 -0.00 -0.00 0.00 0.00 0.00 0.00 -0.00 0.00
-0.05 -0.00 -0.00 0.07 0.10 0.10 0.05 -0.02 -0.20 -0.20 -0.28 -0.15 -0.09 -0.06 -0.06 0.02 0.16 0.12 0.12 0.09 0.15 0.14 0.14 0.15 0.17 0.18 0.18 0.18 0.27 0.27 0.37 0.52 0.62 0.66 0.66 0.59 0.52 0.35 0.35 0.26 0.23 0.23 0.23 0.23 0.26 0.26 0.24 0.24 0.25 0.25 0.23 0.21 0.14 0.12 0.12 0.11 0.09 0.10 0.10 0.06 0.05 0.03 0.03 0.02 0.02 0.02 0.01 0.01 0.00
-0.08 -0.02 -0.02 0.09 0.04 0.04 0.07 0.09 0.05 0.05 0.12 0.13 0.08 0.10 0.10 0.19 0.40 0.31 0.31 0.26 0.23 0.20 0.20 0.14 0.15 0.17 0.17 0.19 0.23 0.23 0.33 0.48 0.55 0.61 0.61 0.59 0.55 0.46 0.46 0.37 0.31 0.28 0.28 0.26 0.26 0.26 0.27 0.24 0.21 0.21 0.20 0.21 0.22 0.17 0.17 0.15 0.16 0.13 0.13 0.10 0.09 0.08 0.08 0.07 0.05 0.05 0.04 0.04 0.02
-0.13 0.01 0.01 0.01 0.01 0.01 0.01 0.07 0.15 0.15 0.23 0.32 0.42 0.44 0.44 0.41 0.43 0.34 0.34 0.26 0.23 0.19 0.19 0.19 0.12 0.14 0.14 0.17 0.20 0.20 0.27 0.36 0.54 0.58 0.58 0.57 0.50 0.41 0.41 0.35 0.31 0.30 0.30 0.29 0.27 0.27 0.28 0.21 0.20 0.20 0.18 0.19 0.21 0.23 0.23 0.20 0.20 0.16 0.16 0.12 0.11 0.10 0.10 0.10 0.08 0.08 0.06 0.07 0.04
-0.24 -0.10 -0.10 -0.08 0.02 0.02 0.15 0.22 0.25 0.25 0.23 0.29 0.39 0.49 0.49 0.48 0.43 0.51 0.51 0.32 0.21 0.19 0.19 0.19 0.14 0.16 0.16 0.19 0.22 0.22 0.24 0.30 0.52 0.56 0.56 0.53 0.46 0.37 0.37 0.29 0.25 0.27 0.27 0.26 0.26 0.26 0.24 0.20 0.18 0.18 0.18 0.18 0.19 0.23 0.23 0.23 0.22 0.21 0.21 0.18 0.15 0.13 0.13 0.12 0.12 0.12 0.10 0.12 0.08
-0.22 -0.02 -0.02 0.04 0.09 0.09 0.28 0.35 0.38 0.38 0.30 0.28 0.34 0.46 0.46 0.52 0.55 0.56 0.56 0.40 0.18 0.12 0.12 0.17 0.24 0.23 0.23 0.22 0.21 0.21 0.22 0.24 0.40 0.52 0.52 0.50 0.41 0.34 0.34 0.26 0.19 0.16 0.16 0.19 0.22 0.22 0.19 0.17 0.18 0.18 0.19 0.19 0.19 0.20 0.20 0.15 0.17 0.19 0.19 0.19 0.18 0.17 0.17 0.16 0.15 0.15 0.17 0.18 0.15
-0.13 0.08 0.08 0.18 0.25 0.25 0.40 0.49 0.56 0.56 0.41 0.28 0.30 0.40 0.40 0.50 0.55 0.50 0.50 0.38 0.17 0.09 0.09 0.14 0.23 0.28 0.28 0.29 0.24 0.24 0.20 0.20 0.22 0.38 0.38 0.44 0.40 0.31 0.31 0.24 0.15 0.13 0.13 0.12 0.12 0.12 0.18 0.14 0.12 0.12 0.14 0.17 0.18 0.17 0.17 0.15 0.13 0.12 0.12 0.13 0.14 0.14 0.14 0.15 0.16 0.16 0.20 0.22 0.21
-0.08 0.11 0.11 0.21 0.27 0.27 0.38 0.50 0.57 0.57 0.44 0.37 0.34 0.41 0.41 0.46 0.46 0.47 0.47 0.42 0.30 0.15 0.15 0.13 0.23 0.25 0.25 0.30 0.32 0.32 0.21 0.20 0.20 0.25 0.25 0.33 0.36 0.33 0.33 0.23 0.21 0.11 0.11 0.10 0.09 0.09 0.11 0.13 0.08 0.08 0.08 0.09 0.11 0.14 0.14 0.11 0.12 0.09 0.09 0.09 0.08 0.08 0.08 0.10 0.13 0.13 0.13 0.18 0.22
-0.01 0.13 0.13 0.18 0.21 0.21 0.26 0.36 0.42 0.42 0.44 0.43 0.39 0.40 0.40 0.41 0.43 0.54 0.54 0.52 0.46 0.37 0.37 0.28 0.24 0.28 0.28 0.27 0.30 0.30 0.31 0.26 0.25 0.26 0.26 0.27 0.31 0.33 0.33 0.33 0.32 0.15 0.15 0.09 0.08 0.08 0.07 0.09 0.09 0.09 0.05 0.04 0.05 0.06 0.06 0.07 0.10 0.11 0.11 0.10 0.10 0.07 0.07 0.07 0.10 0.10 0.10 0.10 0.16
0.13 0.22 0.22 0.21 0.18 0.18 0.20 0.23 0.29 0.29 0.32 0.33 0.27 0.31 0.31 0.33 0.41 0.62 0.62 0.61 0.57 0.50 0.50 0.41 0.33 0.35 0.35 0.31 0.27 0.27 0.34 0.35 0.29 0.28 0.28 0.30 0.28 0.30 0.30 0.28 0.31 0.33 0.33 0.19 0.10 0.10 0.08 0.09 0.12 0.12 0.10 0.06 0.05 0.06 0.06 0.06 0.08 0.09 0.09 0.09 0.11 0.11 0.11 0.08 0.11 0.11 0.10 0.09 0.09
0.13 0.18 0.18 0.30 0.27 0.27 0.35 0.38 0.40 0.40 0.27 0.19 0.25 0.29 0.29 0.41 0.39 0.58 0.58 0.60 0.55 0.48 0.48 0.47 0.47 0.44 0.44 0.42 0.38 0.38 0.37 0.35 0.37 0.37 0.37 0.26 0.26 0.32 0.32 0.28 0.30 0.34 0.34 0.38 0.34 0.34 0.29 0.21 0.16 0.16 0.16 0.23 0.30 0.10 0.10 0.11 0.12 0.12 0.12 0.12 0.10 0.07 0.07 0.08 0.14 0.14 0.18 0.16 0.14
0.24 0.25 0.25 0.27 0.26 0.26 0.37 0.39 0.49 0.49 0.35 0.35 0.43 0.55 0.55 0.67 0.60 0.66 0.66 0.68 0.54 0.46 0.46 0.41 0.46 0.49 0.49 0.45 0.39 0.39 0.34 0.33 0.32 0.34 0.34 0.35 0.46 0.42 0.42 0.39 0.38 0.37 0.37 0.34 0.32 0.32 0.29 0.27 0.26 0.26 0.25 0.32 0.47 0.37 0.37 0.14 0.14 0.14 0.14 0.15 0.15 0.13 0.13 0.16 0.19 0.19 0.22 0.22 0.22
0.48 0.42 0.42 0.38 0.40 0.40 0.47 0.52 0.52 0.52 0.50 0.50 0.54 0.67 0.67 0.86 0.84 0.73 0.73 0.66 0.54 0.45 0.45 0.38 0.36 0.44 0.44 0.53 0.48 0.48 0.41 0.36 0.34 0.34 0.34 0.39 0.51 0.50 0.50 0.48 0.41 0.35 0.35 0.30 0.28 0.28 0.33 0.31 0.30 0.30 0.33 0.44 0.53 0.52 0.52 0.22 0.19 0.18 0.18 0.17 0.18 0.17 0.17 0.19 0.18 0.18 0.22 0.24 0.26
1.25 0.99 0.99 0.70 0.63 0.63 0.61 0.64 0.63 0.63 0.65 0.66 0.69 0.76 0.76 0.91 0.92 0.87 0.87 0.63 0.56 0.51 0.51 0.44 0.39 0.35 0.35 0.38 0.54 0.54 0.46 0.41 0.40 0.38 0.38 0.39 0.40 0.55 0.55 0.65 0.54 0.40 0.40 0.28 0.28 0.28 0.29 0.31 0.30 0.30 0.32 0.43 0.47 0.48 0.48 0.46 0.26 0.22 0.22 0.23 0.23 0.21 0.21 0.25 0.25 0.25 0.23 0.25 0.26
1.12 1.09 1.09 1.06 0.98 0.98 0.91 0.82 0.74 0.74 0.74 0.78 0.78 0.83 0.83 0.93 0.93 0.89 0.89 0.70 0.64 0.54 0.54 0.50 0.47 0.46 0.46 0.41 0.43 0.43 0.47 0.43 0.40 0.44 0.44 0.41 0.41 0.59 0.59 0.67 0.67 0.53 0.53 0.37 0.30 0.30 0.28 0.29 0.30 0.30 0.32 0.38 0.42 0.40 0.40 0.40 0.40 0.30 0.30 0.26 0.25 0.25 0.25 0.28 0.29 0.29 0.31 0.31 0.30
1.11 1.14 1.14 1.17 1.16 1.16 1.17 1.17 0.97 0.97 0.92 0.93 0.88 0.87 0.87 0.91 0.91 0.87 0.87 0.84 0.74 0.62 0.62 0.50 0.49 0.52 0.52 0.53 0.42 0.42 0.45 0.49 0.55 0.54 0.54 0.50 0.49 0.55 0.55 0.60 0.61 0.53 0.53 0.39 0.30 0.30 0.26 0.28 0.30 0.30 0.34 0.41 0.41 0.38 0.38 0.36 0.36 0.33 0.33 0.29 0.28 0.29 0.29 0.32 0.33 0.33 0.34 0.34 0.33
1.21 1.24 1.24 1.27 1.22 1.22 1.19 1.20 1.18 1.18 1.10 1.00 0.96 0.92 0.92 0.92 0.90 0.92 0.92 0.90 0.80 0.67 0.67 0.59 0.52 0.55 0.55 0.61 0.59 0.59 0.56 0.57 0.51 0.50 0.50 0.52 0.53 0.57 0.57 0.53 0.50 0.47 0.47 0.39 0.30 0.30 0.26 0.25 0.29 0.29 0.35 0.44 0.43 0.38 0.38 0.35 0.35 0.34 0.34 0.29 0.26 0.25 0.25 0.28 0.31 0.31 0.34 0.35 0.34
1.52 1.41 1.41 1.43 1.35 1.35 1.26 1.20 1.10 1.10 1.11 1.05 0.99 0.93 0.93 0.91 0.93 0.92 0.92 0.85 0.80 0.73 0.73 0.68 0.63 0.63 0.63 0.68 0.72 0.72 0.82 0.74 0.55 0.45 0.45 0.47 0.48 0.51 0.51 0.56 0.44 0.45 0.45 0.46 0.43 0.43 0.34 0.29 0.28 0.28 0.33 0.43 0.47 0.45 0.45 0.40 0.39 0.35 0.35 0.30 0.25 0.24 0.24 0.25 0.27 0.27 0.29 0.32 0.33
1.73 1.64 1.64 1.61 1.50 1.50 1.39 1.33 1.16 1.16 1.06 1.00 1.00 1.02 1.02 0.99 0.94 0.97 0.97 0.92 0.81 0.78 0.78 0.80 0.78 0.74 0.74 0.70 0.67 0.67 0.78 0.85 0.73 0.51 0.51 0.40 0.44 0.53 0.53 0.59 0.51 0.40 0.40 0.42 0.49 0.49 0.53 0.54 0.63 0.63 0.53 0.43 0.45 0.48 0.48 0.48 0.44 0.40 0.40 0.37 0.37 0.29 0.29 0.25 0.26 0.26 0.27 0.26 0.28
1.58 1.66 1.66 1.65 1.59 1.59 1.56 1.52 1.31 1.31 1.20 1.08 1.04 1.06 1.06 1.04 1.01 1.02 1.02 1.04 0.95 0.89 0.89 0.88 0.87 0.82 0.82 0.80 0.69 0.69 0.64 0.71 0.81 0.72 0.72 0.55 0.52 0.55 0.55 0.58 0.59 0.44 0.44 0.38 0.45 0.45 0.55 0.62 0.66 0.66 0.64 0.59 0.53 0.49 0.49 0.50 0.50 0.51 0.51 0.43 0.43 0.35 0.35 0.31 0.25 0.25 0.26 0.26 0.27
1.14 1.29 1.29 1.43 1.57 1.57 1.67 1.65 1.43 1.43 1.42 1.34 1.21 1.12 1.12 1.07 1.09 1.11 1.11 1.09 1.08 1.05 1.05 1.02 0.94 1.00 1.00 0.95 0.79 0.79 0.65 0.61 0.73 0.84 0.84 0.76 0.61 0.55 0.55 0.51 0.52 0.54 0.54 0.42 0.44 0.44 0.54 0.57 0.65 0.65 0.72 0.73 0.73 0.51 0.51 0.47 0.46 0.47 0.47 0.49 0.43 0.41 0.41 0.36 0.34 0.34 0.31 0.29 0.29
1.01 1.01 1.01 1.08 1.22 1.22 1.36 1.44 1.47 1.47 1.40 1.39 1.40 1.27 1.27 1.16 1.17 1.18 1.18 1.14 1.11 1.12 1.12 1.07 1.06 1.12 1.12 1.09 0.96 0.96 0.78 0.66 0.69 0.85 0.85 0.88 0.80 0.67 0.67 0.56 0.53 0.56 0.56 0.54 0.53 0.53 0.54 0.59 0.61 0.61 0.74 0.79 0.73 0.66 0.66 0.51 0.47 0.45 0.45 0.45 0.44 0.43 0.43 0.40 0.37 0.37 0.37 0.36 0.33
0.81 0.94 0.94 0.99 1.01 1.01 1.00 1.02 1.11 1.11 1.10 1.16 1.20 1.27 1.27 1.27 1.23 1.22 1.22 1.23 1.18 1.19 1.19 1.14 1.17 1.21 1.21 1.15 1.07 1.07 0.98 0.86 0.69 0.77 0.77 0.90 0.91 0.82 0.82 0.71 0.64 0.62 0.62 0.66 0.67 0.67 0.73 0.65 0.63 0.63 0.71 0.76 0.72 0.67 0.67 0.62 0.51 0.46 0.46 0.44 0.45 0.45 0.45 0.44 0.41 0.41 0.39 0.38 0.36
0.74 0.74 0.74 0.79 0.96 0.96 0.96 0.94 0.80 0.80 0.72 0.74 0.82 0.88 0.88 0.98 1.15 1.28 1.28 1.10 1.29 1.27 1.27 1.28 1.31 1.29 1.29 1.25 1.16 1.16 1.11 1.04 0.86 0.83 0.83 0.87 0.89 0.86 0.86 0.81 0.78 0.69 0.69 0.68 0.76 0.76 0.78 0.71 0.67 0.67 0.65 0.63 0.62 0.63 0.63 0.60 0.57 0.49 0.49 0.49 0.45 0.44 0.44 0.45 0.44 0.44 0.42 0.40 0.37
0.70 0.72 0.72 0.77 0.85 0.85 0.89 0.87 0.75 0.75 0.61 0.55 0.52 0.53 0.53 0.44 0.50 0.59 0.59 0.72 1.08 1.24 1.24 1.35 1.41 1.42 1.42 1.36 1.26 1.26 1.16 1.10 1.10 0.97 0.97 0.90 0.87 0.84 0.84 0.88 0.89 0.82 0.82 0.72 0.80 0.80 0.77 0.73 0.69 0.69 0.64 0.59 0.56 0.57 0.57 0.57 0.58 0.56 0.56 0.53 0.46 0.42 0.42 0.42 0.46 0.46 0.46 0.45 0.47
0.63 0.64 0.64 0.70 0.76 0.76 0.84 0.85 0.77 0.77 0.69 0.59 0.51 0.46 0.46 0.47 0.51 0.59 0.59 0.66 0.72 0.99 0.99 1.12 1.19 1.25 1.25 1.28 1.23 1.23 1.12 1.03 1.04 0.99 0.99 0.92 0.89 0.84 0.84 0.91 0.96 0.93 0.93 0.85 0.94 0.94 0.87 0.73 0.69 0.69 0.63 0.58 0.55 0.54 0.54 0.55 0.57 0.58 0.58 0.58 0.55 0.46 0.46 0.43 0.44 0.44 0.47 0.47 0.42
0.67 0.68 0.68 0.69 0.71 0.71 0.71 0.69 0.63 0.63 0.60 0.53 0.48 0.45 0.45 0.45 0.52 0.62 0.62 0.67 0.69 0.80 0.80 0.90 0.91 0.89 0.89 0.91 1.01 1.01 1.08 1.04 1.00 1.01 1.01 0.94 0.92 0.87 0.87 0.87 0.92 0.95 0.95 1.05 1.07 1.07 0.96 0.85 0.69 0.69 0.64 0.59 0.58 0.59 0.59 0.59 0.58 0.64 0.64 0.62 0.57 0.53 0.53 0.46 0.43 0.43 0.41 0.42 0.36
0.63 0.70 0.70 0.76 0.78 0.78 0.72 0.67 0.59 0.59 0.60 0.47 0.39 0.35 0.35 0.37 0.41 0.51 0.51 0.59 0.62 0.69 0.69 0.77 0.81 0.74 0.74 0.67 0.70 0.70 0.84 0.96 0.97 0.97 0.97 0.97 0.90 0.85 0.85 0.79 0.80 0.92 0.92 0.96 1.07 1.07 1.02 0.91 0.80 0.80 0.63 0.61 0.60 0.61 0.61 0.63 0.65 0.62 0.62 0.61 0.60 0.56 0.56 0.51 0.46 0.46 0.39 0.36 0.31
0.52 0.58 0.58 0.68 0.67 0.67 0.61 0.59 0.62 0.62 0.69 0.66 0.53 0.37 0.37 0.31 0.32 0.37 0.37 0.41 0.46 0.61 0.61 0.67 0.77 0.80 0.80 0.67 0.61 0.61 0.64 0.74 0.86 0.89 0.89 0.88 0.89 0.85 0.85 0.77 0.72 0.74 0.74 0.82 0.94 0.94 0.96 0.91 0.81 0.81 0.70 0.61 0.61 0.61 0.61 0.62 0.59 0.56 0.56 0.57 0.58 0.54 0.54 0.51 0.47 0.47 0.42 0.33 0.29
0.22 0.34 0.34 0.44 0.47 0.47 0.48 0.52 0.55 0.55 0.62 0.69 0.70 0.63 0.63 0.52 0.40 0.35 0.35 0.36 0.43 0.47 0.47 0.59 0.67 0.82 0.82 0.80 0.64 0.64 0.58 0.57 0.65 0.78 0.78 0.79 0.80 0.86 0.86 0.79 0.74 0.71 0.71 0.71 0.78 0.78 0.84 0.82 0.77 0.77 0.69 0.64 0.64 0.63 0.63 0.61 0.57 0.55 0.55 0.54 0.53 0.50 0.50 0.47 0.45 0.45 0.41 0.38 0.33
0.03 0.06 0.06 0.10 0.16 0.16 0.22 0.33 0.38 0.38 0.47 0.55 0.66 0.70 0.70 0.63 0.59 0.50 0.50 0.40 0.44 0.49 0.49 0.55 0.61 0.63 0.63 0.66 0.66 0.66 0.56 0.51 0.52 0.63 0.63 0.72 0.78 0.82 0.82 0.81 0.71 0.64 0.64 0.61 0.63 0.63 0.66 0.69 0.69 0.69 0.68 0.67 0.63 0.62 0.62 0.56 0.54 0.52 0.52 0.51 0.50 0.49 0.49 0.47 0.45 0.45 0.43 0.41 0.35
0.01 0.01 0.01 0.01 0.02 0.02 0.03 0.09 0.13 0.13 0.20 0.31 0.47 0.59 0.59 0.64 0.63 0.58 0.58 0.52 0.46 0.47 0.47 0.51 0.59 0.58 0.58 0.55 0.59 0.59 0.62 0.56 0.51 0.53 0.53 0.60 0.65 0.74 0.74 0.64 0.65 0.57 0.57 0.55 0.56 0.56 0.57 0.57 0.59 0.59 0.62 0.64 0.63 0.58 0.58 0.52 0.50 0.47 0.47 0.47 0.46 0.46 0.46 0.46 0.46 0.46 0.45 0.39 0.36
0.01 0.01 0.01 0.01 0.01 0.01 0.01 0.01 0.03 0.03 0.05 0.10 0.19 0.31 0.31 0.47 0.56 0.58 0.58 0.55 0.51 0.45 0.45 0.44 0.54 0.58 0.58 0.57 0.60 0.60 0.63 0.59 0.53 0.50 0.50 0.51 0.49 0.53 0.53 0.44 0.55 0.51 0.51 0.50 0.52 0.52 0.53 0.51 0.51 0.51 0.52 0.56 0.59 0.56 0.56 0.50 0.47 0.46 0.46 0.44 0.44 0.43 0.43 0.41 0.41 0.41 0.35 0.34 0.33
0.01 0.00 0.00 0.00 -0.00 -0.00 0.00 0.01 0.01 0.01 0.01 0.02 0.05 0.12 0.12 0.23 0.31 0.37 0.37 0.44 0.50 0.50 0.50 0.47 0.53 0.57 0.57 0.57 0.58 0.58 0.59 0.59 0.55 0.51 0.51 0.50 0.45 0.39 0.39 0.37 0.41 0.45 0.45 0.46 0.49 0.49 0.50 0.48 0.45 0.45 0.45 0.47 0.51 0.43 0.43 0.43 0.43 0.44 0.44 0.42 0.40 0.39 0.39 0.36 0.35 0.35 0.30 0.29 0.28